Flag for Slovenia Weather past 2 weeks in Ljubljana, Slovenia

Now
60 °F

Cool.


Feels Like: 60 °F
Forecast: 58 / 87 °F
Wind: No wind

Location: Ljubljana / Bezigrad

Current Time: Aug 28, 2015 at 5:00:00 AM

Latest Report: Aug 28, 2015 at 4:00 AM


Visibility: N/A

Pressure: N/A

Humidity: 94%

Dew point: 58 °F

Location of LjubljanaLocation

Historic Weather in Ljubljana — Graph

°F

Ljubljana temperature yesterday

Maximum temperature yesterday: 84 °F (at 4:00 PM)
Minimum temperature yesterday: 58 °F (at 6:00 AM)
Average temperature yesterday: 69 °F

Past Weeks' High & Low Weather Summary

 TemperatureHumidityPressure
High94 °F (Aug 13, 4:00 PM)100% (Aug 19, 11:00 PM)30.22 "Hg (Aug 19, 11:00 PM)
Low54 °F (Aug 23, 7:00 AM)30% (Aug 13, 5:00 PM)29.71 "Hg (Aug 16, 2:00 PM)
Average68 °F77%29.97 "Hg
* Reported Aug 13 3:00 AM — Aug 28 3:00 AM, Ljubljana, Weather by CustomWeather, © 2015

Note: Actual official high and low records may vary slightly from our data, if they occured in-between our weather recording intervals... More about our weather records

Advertising

Ljubljana weather history for previous 24 hours

 ConditionsComfort  
Time TempWeatherWind HumidityBarometerVisibility
3:00 AM
Fri, Aug 28
60 °FCool.No wind92%30.07 "HgN/A
2:00 AM61 °FCool.No wind91%30.07 "HgN/A
1:00 AM62 °FMild.No wind90%30.07 "HgN/A
10:00 PM
Thu, Aug 27
69 °FPassing clouds.No wind64%30.05 "Hg19 mi
9:00 PM71 °FPassing clouds.1 mph59%30.03 "Hg19 mi
8:00 PM76 °FPassing clouds.1 mph48%30.01 "Hg19 mi
7:00 PM80 °FPassing clouds.3 mph45%29.99 "Hg19 mi
6:00 PM84 °FPassing clouds.3 mph42%29.99 "Hg19 mi
5:00 PM84 °FPassing clouds.5 mph43%29.98 "Hg19 mi
4:00 PM84 °FPassing clouds.2 mph44%29.98 "Hg19 mi
3:00 PM82 °FPassing clouds.1 mph52%30.00 "Hg19 mi
2:00 PM78 °FPassing clouds.2 mph56%30.03 "Hg22 mi
1:00 PM75 °FPassing clouds.1 mph62%30.05 "Hg25 mi
12:00 PM70 °FPassing clouds.1 mph72%30.08 "Hg19 mi
11:00 AM66 °FFog.2 mph86%30.10 "Hg2 mi
10:00 AM61 °FFog.1 mph96%30.11 "Hg1 mi
9:00 AM60 °FFog.1 mph100%30.11 "Hg1 mi
8:00 AM59 °FFog.No wind100%30.11 "Hg1 mi
7:00 AM58 °FFog.No wind100%30.10 "Hg1 mi
6:00 AM58 °FCool.No wind100%30.10 "HgN/A
Weather by CustomWeather, © 2015

See weather overviewHow to use our weather pages